Weather History for WMKD - January, 2014

Change the Weather History Date:

Friday, January 17, 2014

  Actual Average Record
Temperature  
Mean Temperature 77 °F -  
Max Temperature 82 °F 86 °F - ()
Min Temperature 72 °F 71 °F - ()
Cooling Degree Days 12    
Growing Degree Days 27 (Base 50)    
Moisture  
Dew Point 69 °F    
Average Humidity 77    
Maximum Humidity 88    
Minimum Humidity 64    
Precipitation  
Precipitation 0.00 in 0.27 in - ()
Sea Level Pressure  
Sea Level Pressure 29.94 in    
Wind  
Wind Speed 5 mph ()    
Max Wind Speed 10 mph    
Max Gust Speed -    
Visibility 6.2 miles    
Events Rain    
T = Trace of Precipitation, MM = Missing Value Source: Averaged Metar Reports

Daily Weather History Graph

Daily Weather History Graph

Search for Another Location

Airport or City:

Trip Planner

Search our weather history database for the weather conditions in past years. The results will help you decide how hot, cold, wet, or windy it might be!

Date:

Astronomy

Jan. 17, 2014 Rise Set
Actual Time 7:19 AM MYT 7:15 PM MYT
Civil Twilight 6:57 AM MYT 7:37 PM MYT
Nautical Twilight 6:31 AM MYT 8:02 PM MYT
Astronomical Twilight 6:05 AM MYT 8:28 PM MYT
Moon 8:06 PM MYT (1/17) 7:50 AM MYT (1/17)
Length of Visible Light 12h 40m
Length of Day
11h 55m
Full, 99% of the Moon is Illuminated
Jan 17
Full
Jan 24
Last Quarter
Jan 31
New
Feb 7
First Quarter
Feb 15
Full

Hourly Weather History & Observations

Time (MYT) Temp. Heat Index Dew Point Humidity Pressure Visibility Wind Dir Wind Speed Gust Speed Precip Events Conditions
12:00 AM 73.4 °F - 68.0 °F 83% 29.98 in 5.0 mi North 5.8 mph - N/A   Mostly Cloudy
1:00 AM 71.6 °F - 68.0 °F 88% 29.98 in 5.0 mi NNE 3.5 mph - N/A   Mostly Cloudy
2:00 AM 72 °F - 69 °F 85% 29.97 in 5 mi North 2.3 mph - -   Haze
2:00 AM 71.6 °F - 68.0 °F 88% 29.95 in 5.0 mi North 2.3 mph - N/A   Mostly Cloudy
3:00 AM 73.4 °F - 68.0 °F 83% 29.95 in 5.0 mi NNW 4.6 mph - N/A   Mostly Cloudy
4:00 AM 73.4 °F - 68.0 °F 83% 29.92 in 5.0 mi NNW 3.5 mph - N/A   Mostly Cloudy
5:00 AM 72 °F - 68 °F 85% 29.92 in 4 mi North 3.5 mph - -   Haze
5:00 AM 73.4 °F - 68.0 °F 83% 29.92 in 4.3 mi North 3.5 mph - N/A   Mostly Cloudy
6:00 AM 71.6 °F - 68.0 °F 88% 29.92 in 4.3 mi North 4.6 mph - N/A   Mostly Cloudy
7:00 AM 73.4 °F - 68.0 °F 83% 29.92 in 4.3 mi North 5.8 mph - N/A   Mostly Cloudy
8:00 AM 73 °F - 69 °F 82% 29.96 in 6 mi NNW 4.6 mph - -   Haze
8:00 AM 73.4 °F - 68.0 °F 83% 29.95 in 5.6 mi NNW 4.6 mph - N/A   Mostly Cloudy
9:00 AM 75.2 °F - 69.8 °F 83% 29.98 in 6.2 mi NNW 5.8 mph - N/A   Mostly Cloudy
10:00 AM 78.8 °F - 69.8 °F 74% 29.98 in 6.2 mi North 9.2 mph - N/A   Mostly Cloudy
11:00 AM 80 °F - 70 °F 65% 29.98 in 11 mi North 9.2 mph - -   Haze
11:00 AM 80.6 °F 83.9 °F 69.8 °F 70% 29.98 in 6.2 mi North 9.2 mph - N/A   Mostly Cloudy
12:00 PM 80.6 °F 83.9 °F 69.8 °F 70% 29.95 in 6.2 mi NNE 10.4 mph - N/A   Mostly Cloudy
1:00 PM 82.4 °F 86.3 °F 69.8 °F 66% 29.95 in 6.2 mi NNE 9.2 mph - N/A   Mostly Cloudy
2:00 PM 80 °F - 70 °F 65% 29.93 in 9 mi NNE 8.1 mph - - Rain Light Rain Showers
2:00 PM 80.6 °F 83.9 °F 69.8 °F 70% 29.92 in 6.2 mi NNE 8.1 mph - N/A Rain Light Rain Showers
3:00 PM 80.6 °F 83.9 °F 69.8 °F 70% 29.89 in 6.2 mi North 6.9 mph - N/A   Mostly Cloudy
4:00 PM 80.6 °F 84.6 °F 71.6 °F 74% 29.89 in 6.2 mi North 5.8 mph - N/A   Mostly Cloudy
5:00 PM 80 °F - 70 °F 64% 29.89 in 10 mi NNE 6.9 mph - -   Haze
5:00 PM 78.8 °F - 69.8 °F 74% 29.89 in 6.2 mi NNE 6.9 mph - N/A   Mostly Cloudy
6:00 PM 78.8 °F - 69.8 °F 74% 29.89 in 6.2 mi NNE 5.8 mph - N/A   Mostly Cloudy
7:00 PM 77.0 °F - 69.8 °F 78% 29.92 in 6.2 mi NNE 4.6 mph - N/A   Mostly Cloudy
8:00 PM 77 °F - 70 °F 72% 29.94 in 9 mi North 4.6 mph - -   Haze
8:00 PM 77.0 °F - 69.8 °F 78% 29.92 in 6.2 mi North 4.6 mph - N/A   Mostly Cloudy
9:00 PM 77.0 °F - 69.8 °F 78% 29.95 in 6.2 mi North 4.6 mph - N/A   Mostly Cloudy
10:00 PM 77.0 °F - 69.8 °F 78% 29.98 in 6.2 mi NE 2.3 mph - N/A   Mostly Cloudy
11:00 PM 75 °F - 69 °F 78% 29.99 in 7 mi North 6.9 mph - -   Haze
11:00 PM 75.2 °F - 69.8 °F 83% 29.98 in 6.2 mi North 6.9 mph - N/A   Mostly Cloudy